Regional Weather Roundup
Issued by NWS Upton, NY

Current Version | Previous Version | Graphics & Text | Print | Product List | Glossary Off
Versions: 1 2 3 4 5 6 7 8 9 10 11 12 13 14 15 16 17 18 19 20 21 22 23 24 25 26 27 28 29 30 31 32 33 34 35 36 37 38 39 40 41 42 43 44 45 46 47 48 49 50

000
ASUS41 KOKX 120508
RWROKX

REGIONAL WEATHER ROUNDUP
NATIONAL WEATHER SERVICE NEW YORK NY
1200 AM EST TUE DEC 12 2017

NOTE: "FAIR" INDICATES FEW OR NO CLOUDS BELOW 12,000 FEET WITH NO
SIGNIFICANT WEATHER AND/OR OBSTRUCTIONS TO VISIBILITY.

NYZ071-072-176-178-NJZ106-104-120600-
NEW YORK CITY METRO AREA

CITY           SKY/WX    TMP DP  RH WIND       PRES   REMARKS
Central Park   CLOUDY    39  22  50 S8        29.96F WCI  33
Bronx Bot Gard   N/A     37  23  56 S5        29.94F WCI  34
Bronx Lehman C   N/A     39  23  52 S6          N/A  WCI  35
LaGuardia APRT CLOUDY    40  23  50 S7        29.94F
Queens College   N/A     39  27  60 S5          N/A
Kennedy INTL   CLOUDY    39  27  62 S8        29.96F WCI  33
Breezy Point     N/A     39 N/A N/A S8          N/A  WCI  34
Brooklyn Coll    N/A     39  27  60 SE6         N/A  WCI  35
Staten Island    N/A     37  25  60 SE3         N/A
Newark/Liberty CLOUDY    39  24  55 S3        29.94F
Teterboro      CLOUDY    39  23  52 S8        29.94F WCI  33
$$

NYZ177-179-078>081-120600-
LONG ISLAND NEW YORK

CITY           SKY/WX    TMP DP  RH WIND       PRES   REMARKS
Jones Beach      N/A     41 N/A N/A SW6G12      N/A
Wantagh          N/A     36  27  69 E2          N/A
Matinecock PT    N/A     36 N/A N/A S2          N/A
Farmingdale    CLOUDY    33  26  75 CALM      29.95F
MacArthur/ISP  CLOUDY    34  26  72 CALM      29.95F
Shirley        CLOUDY    31  26  82 CALM      29.97F
Mt Sinai Harb    N/A    N/A N/A N/A CALM        N/A
Westhampton    CLOUDY    30  25  81 NE3       29.98F
East Hampton   CLOUDY    29  25  85 CALM      29.97F
Southold         N/A     32  28  86 E2          N/A
Montauk          N/A     35  29  78 CALM      29.99F
$$

NYZ052-065-067-120600-
HUDSON VALLEY

CITY           SKY/WX    TMP DP  RH WIND       PRES   REMARKS
White Plains   CLOUDY    32  25  75 CALM      29.92F
Larchmont Harb   N/A     39 N/A N/A SE7         N/A  WCI  34
Croton On Huds   N/A     36 N/A N/A E2          N/A
Somers           N/A     32  23  69 E2          N/A
Brewster         N/A     32  23  69 CALM        N/A
Newburgh       MOCLDY    34  25  69 S7        29.92F WCI  28
Montgomery     CLOUDY    31  26  82 CALM      29.90F
Otisville        N/A     32  25  74 E2          N/A
Warwick          N/A     34  25  69 S7          N/A  WCI  28
Suffern          N/A     32  25  74 CALM        N/A
Poughkeepsie   CLOUDY    33  23  66 SE3       29.92F
Albany         FLURRIES  29  19  66 CALM      29.92F
$$

NJZ001-105-106-008-010-013-015-019>022-104-120600-
NEW JERSEY

CITY           SKY/WX    TMP DP  RH WIND       PRES   REMARKS
Newark/Liberty CLOUDY    39  24  55 S3        29.94F
Teterboro      CLOUDY    39  23  52 S8        29.94F WCI  33
Caldwell       CLOUDY    35  25  66 CALM      29.94F
Somerville     CLOUDY    34  26  72 CALM      29.91F
Linden         MOCLDY    37  24  57 CALM      29.94F
Perth Amboy      N/A     36 N/A N/A SE7         N/A  WCI  30
Sussex         CLOUDY    32  26  78 CALM      29.89F
Andover        NOT AVBL
Trenton        CLOUDY    33  23  66 SE6       29.91F WCI  28
Millville      CLOUDY    34  31  88 CALM      29.92F
Atlantic City  CLOUDY    33  30  88 CALM      29.93F
Wrightstown    MOCLDY    31  24  73 SE5       29.89F WCI  27
Toms River     CLOUDY    29  27  92 CALM      29.94F
Belmar         CLOUDY    36  22  56 SE3       29.94F
$$

PAZ047>061-062-071-120600-
EASTERN PENNSYLVANIA

CITY           SKY/WX    TMP DP  RH WIND       PRES   REMARKS
Philadelphia   CLOUDY    36  25  64 E5        29.91F WCI  32
Allentown      CLOUDY    37  22  54 SE6       29.89F WCI  32
Scranton       CLOUDY    35  22  58 VRB3      29.80F
$$

CTZ002-004>006-009-010-012-RIZ004-006-007-MAZ004-011-015-120600-
SOUTHERN NEW ENGLAND
 IN CT

CITY           SKY/WX    TMP DP  RH WIND       PRES   REMARKS
Bradley INTL   CLOUDY    30  22  72 CALM      29.96F
Hartford       FLURRIES  33  25  72 CALM      29.97F
Danbury        CLOUDY    33  24  69 CALM      29.94F
Wtrbury/Oxford CLOUDY    32  21  64 SE6       29.93F WCI  26
Norwalk Harbor   N/A     37 N/A N/A S7          N/A  WCI  32
Bridgeport     CLOUDY    39  24  55 S5        29.96F
Meriden        CLOUDY    30  25  81 CALM      29.96F
New Haven      CLOUDY    36  23  59 CALM      29.96F
Chester        FAIR      32  21  64 CALM      29.95F
Groton         CLOUDY    35  24  64 N6        29.97F WCI  30
Wilimantic     CLOUDY    31  25  78 CALM      29.98F

 IN RI

CITY           SKY/WX    TMP DP  RH WIND       PRES   REMARKS
Providence     CLOUDY    34  26  72 CALM      30.00S
Block Island     N/A    N/A N/A N/A MISG        N/A
Westerly       CLOUDY    33  26  75 NE3       29.99F
 IN MA

CITY           SKY/WX    TMP DP  RH WIND       PRES   REMARKS
Boston         CLOUDY    34  25  69 N3        30.00F
Worcester      CLOUDY    29  16  58 SE6       29.93F WCI  23
Westfield      CLOUDY    30  23  75 CALM      29.96F
Provincetown   CLOUDY    31  25  78 SE3       30.01S
Nantucket      CLOUDY    36  29  75 E6        30.00F WCI  31
$$

ANZ330-335-338-340-345-350-353-355-120600-
COASTAL MARINE OBSERVATIONS


STATION/POSITION TIME  SKY/WX   TEMP    WIND        PRES    VSBY  WAVE
                                AIR SEA DIR/SP/G                  HT/PER
                 (UTC)          (F)     (DEG/KT/KT) (MB)    (MI)  (FT/S)
NY HARB ENTRANCE 0350            43 51  190/ 10/ 12 1014.6          2/ 8
20 S FIRE ISLAND 0350            43 53  230/  8/ 12 1015.5          3/10
GREAT SOUTH BAY  0400            38 45   10/  4/  4   N/A
HUDSON CANYON    0350            44 56  230/  6/ 10 1015.9          4/ 9
KINGS POINT      0430            38 46  190/  4/  5 1015.1
EXECUTION ROCKS  0430            40     130/  4/  6   N/A
WESTERN LI SOUND 0349            40     190/  6/  8   N/A           0
CENTRAL LI SOUND 0353            41     170/  6/ 10   N/A           0
ROBBINS REEF     0436            40     170/ 13/ 15 1014.7
$$


>>>>>>>>>>>>>>>>>>>>>>>>>>>> KEY <<<<<<<<<<<<<<<<<<<<<<<<<<<
>                                                          <
>     SKY/WX - Sky Condition/Present Weather               <
>     TMP    - Temperature in Fahrenheit                   <
>     DP     - Dew Point in Fahrenheit                     <
>     RH     - Relative Humidity in Percent                <
>     WIND   - Direction (from) and Speed in MPH           <
>     PRES   - Mean Sea Level Pressure (inches of Hg)      <
>     WCI    - Wind Chill Index                            <
>     VSB    - VISIBILITY IN MILES                         <
>     HX     - HEAT INDEX                                  <
>     TC     - TEMPERATURE IN CELSIUS                      <
>     VRB    - VARIABLE WIND DIRECTION                     <
>                                                          <
>>>>>>>>>>>>>>>>>>>>>>>>>>>> KEY <<<<<<<<<<<<<<<<<<<<<<<<<<<



USA.gov is the U.S. government's official web portal to all federal, state and local government web resources and services.